Wind_Speed
62 63 65 66 68 70 70 71 71 71 72 73 76 76 77 78 76 74 69 64 60 57 56 54 50 47 45 50 58 65 71 74 77 84 95 109 124 133
62 64 65 68 69 69 70 71 72 73 73 72 73 73 74 74 73 71 67 62 57 55 53 51 48 44 43 48 58 66 73 76 78 83 92 105 120 131
62 64 66 68 68 69 70 70 71 73 74 73 72 71 70 70 69 67 64 60 56 53 51 49 46 42 41 47 58 67 74 78 80 82 89 102 118 130
62 64 66 67 68 68 69 69 70 72 74 74 70 69 68 67 66 63 60 58 56 53 51 49 45 40 39 47 59 68 75 81 82 83 88 100 116 129
62 64 65 66 66 67 68 68 69 71 72 72 69 67 65 64 62 59 56 55 54 52 50 47 43 39 37 46 59 70 77 83 85 85 89 99 115 128
62 63 64 65 65 66 66 67 68 69 70 70 68 65 63 62 60 57 54 53 52 51 48 45 41 37 34 43 58 71 80 86 87 87 90 99 114 127
61 62 63 63 64 65 65 65 67 68 68 68 66 64 63 61 59 56 54 52 49 49 47 43 40 35 33 40 57 72 82 87 89 89 91 100 114 126
60 61 62 62 63 64 64 64 65 66 66 65 64 63 61 59 57 54 53 51 48 46 46 40 38 33 31 37 55 71 84 89 91 91 92 100 112 124
59 60 60 61 62 62 62 62 62 62 63 62 62 60 59 57 55 52 51 49 47 44 43 38 35 31 29 34 52 71 84 90 92 93 93 100 111 122
58 59 59 60 60 61 60 59 59 59 58 58 59 57 56 54 52 51 50 47 44 42 40 35 32 29 27 32 49 69 84 91 92 94 95 101 110 121
57 58 58 59 59 60 59 58 57 56 55 55 56 55 53 52 51 50 48 45 41 38 37 33 28 25 23 29 45 66 83 92 93 94 95 101 109 120
56 57 57 58 58 58 57 56 55 54 52 53 52 51 50 48 48 48 46 43 39 35 33 29 25 21 19 26 42 63 80 90 92 94 95 100 109 119
55 55 56 57 56 56 55 54 53 52 51 51 50 49 47 46 45 44 42 39 36 32 29 25 21 17 16 24 39 60 77 87 91 93 95 100 108 118
54 54 55 55 54 53 52 51 50 49 49 49 48 47 44 44 42 41 39 36 33 29 25 21 17 13 13 21 37 56 73 84 88 91 94 100 108 117
52 53 53 53 52 50 49 48 48 47 46 46 45 44 42 41 40 37 35 32 29 26 22 17 13 9 9 19 35 52 67 79 84 88 93 100 108 116
50 51 51 50 49 48 47 46 45 44 44 43 42 41 39 39 37 34 32 28 26 22 18 14 10 6 7 17 31 48 62 73 79 85 91 99 108 117
48 48 48 47 47 45 44 43 43 42 42 41 40 38 36 36 34 31 29 25 22 19 15 12 8 4 5 15 28 43 57 68 76 82 89 97 107 115
45 46 45 45 44 42 41 41 41 40 39 38 37 35 33 32 30 28 25 22 19 16 12 9 6 2 5 13 24 37 51 64 74 80 87 95 105 113
43 43 42 41 40 39 38 38 38 37 37 36 35 32 30 29 27 24 21 19 16 13 10 7 3 1 4 11 21 33 46 59 71 79 85 94 103 111
39 39 39 38 37 36 35 35 35 35 34 34 32 29 27 26 24 21 18 16 14 11 8 5 2 2 5 11 18 28 41 54 66 76 84 91 100 109
36 36 35 35 34 33 33 33 33 33 32 31 30 27 24 23 21 18 15 14 12 9 6 3 2 4 7 11 18 26 37 49 61 72 82 89 97 107
32 32 32 32 31 31 31 31 31 30 30 30 27 24 22 21 18 16 13 12 10 7 4 3 3 5 9 12 17 25 34 45 57 67 77 87 95 105
29 29 29 29 29 29 29 29 29 28 28 28 26 23 20 18 16 13 11 9 8 5 3 2 4 7 10 13 17 24 32 41 52 62 71 81 91 100
Wind_Direction
303 303 304 305 305 306 307 307 308 309 310 311 311 311 311 311 310 309 308 306 304 302 300 297 291 278 260 238 222 212 207 203 204 204 204 203 202 200
302 303 304 305 306 307 307 308 309 311 312 313 313 312 312 311 311 310 309 307 305 304 301 298 293 280 261 236 218 210 205 200 200 200 202 202 201 199
302 303 304 305 307 307 308 309 310 311 313 315 314 314 313 312 311 310 310 308 307 305 302 299 294 281 262 234 217 208 203 199 197 198 200 200 200 199
302 304 305 306 307 307 308 310 311 312 314 315 316 315 315 313 312 311 310 308 308 306 303 300 294 282 262 233 216 207 200 197 196 196 198 198 199 198
302 303 304 306 307 308 309 310 312 313 314 316 317 316 316 315 313 312 310 309 308 306 303 300 294 282 262 232 215 206 200 196 196 196 197 198 198 196
302 303 304 306 307 308 310 311 313 314 315 316 317 317 317 317 315 314 313 311 310 307 304 301 295 283 265 233 215 206 199 196 196 197 197 197 197 195
301 303 305 306 307 309 310 312 313 314 316 317 318 319 320 319 318 316 315 314 313 309 305 302 295 284 265 235 214 205 199 195 196 196 196 196 196 194
301 303 305 307 308 309 311 313 314 316 317 319 320 321 321 320 319 318 317 316 314 309 306 304 296 286 265 236 214 204 198 195 195 195 195 195 195 193
301 303 305 307 308 309 311 313 315 317 318 319 321 321 321 321 320 319 318 317 315 311 307 305 297 288 265 236 213 203 198 195 194 194 195 194 194 193
300 302 305 307 308 310 312 314 316 317 318 319 320 321 322 322 321 321 320 319 317 313 309 306 298 288 266 235 213 203 198 195 194 194 194 194 194 192
300 302 305 307 308 310 312 315 317 318 319 320 321 322 323 323 322 323 322 321 320 316 311 308 301 290 266 233 213 202 197 194 194 194 194 193 193 192
300 303 305 307 308 310 313 316 318 319 320 321 322 323 323 323 323 324 324 323 322 319 314 311 304 292 265 230 211 201 196 194 194 193 193 193 193 192
300 302 305 307 309 311 314 316 319 320 321 323 323 324 324 324 325 325 325 325 324 323 319 315 307 294 263 224 208 199 195 193 193 193 193 193 192 191
300 302 304 306 309 312 314 317 319 321 322 324 324 325 325 326 326 327 327 327 327 326 323 320 313 297 257 219 204 197 194 193 192 193 193 193 192 191
300 302 304 306 309 312 315 318 320 321 323 324 325 326 326 327 328 328 329 329 329 329 328 327 321 302 250 212 200 195 193 193 193 193 193 192 191 190
300 302 304 306 309 313 316 319 321 322 324 326 327 327 328 329 329 330 330 330 331 332 333 334 331 309 240 206 197 194 193 192 192 192 192 192 191 190
299 301 303 306 310 313 317 320 322 324 326 327 328 328 329 330 330 331 331 332 333 336 337 339 338 319 229 201 195 193 192 192 192 191 191 191 191 191
298 301 303 306 310 314 318 321 323 325 326 327 329 329 329 330 331 332 332 334 336 338 340 341 341 313 213 197 193 192 192 192 191 191 191 191 190 191
298 300 303 306 311 315 319 322 324 326 327 328 329 329 330 331 332 333 334 336 338 340 342 343 339 290 202 195 192 192 192 191 191 190 190 191 191 191
297 300 303 307 312 317 320 323 325 326 327 329 329 329 330 332 332 333 334 336 339 342 343 339 307 225 200 194 192 191 191 190 190 190 190 191 191 191
296 299 303 308 313 318 322 324 326 327 328 330 330 329 328 330 331 331 331 335 340 340 339 326 262 211 197 192 191 191 191 190 189 189 190 191 192 192
296 300 304 310 316 320 323 325 327 329 330 330 330 328 327 328 328 326 326 327 331 334 329 305 235 202 193 191 191 191 190 190 189 189 191 192 192 193
297 301 306 312 318 323 325 327 328 330 331 332 331 329 326 324 324 322 322 325 325 321 310 267 215 198 193 191 190 190 190 190 189 189 190 192 193 194
Height
5570 5561 5552 5543 5533 5524 5513 5503 5494 5486 5477 5462 5445 5430 5414 5401 5388 5375 5365 5356 5345 5335 5325 5315 5307 5301 5298 5298 5304 5314 5325 5339 5355 5374 5395 5420 5448 5480
5554 5545 5536 5527 5517 5507 5496 5485 5474 5464 5455 5445 5429 5413 5397 5383 5369 5356 5346 5337 5328 5318 5308 5299 5291 5286 5283 5284 5290 5300 5313 5327 5343 5361 5380 5403 5430 5460
5539 5530 5521 5510 5501 5490 5479 5468 5457 5445 5435 5426 5411 5397 5382 5367 5353 5339 5328 5318 5311 5302 5293 5284 5277 5272 5269 5270 5277 5287 5300 5315 5331 5349 5367 5388 5414 5444
5524 5515 5505 5495 5485 5474 5463 5452 5441 5428 5416 5406 5395 5380 5366 5351 5338 5325 5313 5303 5294 5286 5277 5269 5263 5258 5255 5257 5264 5275 5289 5304 5321 5338 5355 5375 5398 5429
5509 5500 5490 5480 5470 5459 5448 5437 5425 5413 5400 5388 5378 5365 5351 5337 5324 5312 5300 5290 5280 5271 5263 5255 5249 5245 5243 5244 5251 5263 5277 5293 5309 5326 5344 5364 5388 5418
5495 5486 5476 5466 5456 5444 5433 5422 5410 5398 5386 5373 5362 5350 5337 5323 5309 5298 5288 5278 5267 5257 5249 5242 5236 5232 5230 5232 5239 5251 5266 5282 5299 5317 5335 5355 5379 5410
5481 5471 5461 5452 5441 5430 5420 5408 5396 5384 5372 5359 5347 5335 5322 5308 5296 5284 5274 5265 5255 5243 5235 5229 5223 5219 5218 5220 5227 5239 5254 5271 5289 5307 5326 5346 5371 5402
5466 5457 5448 5438 5428 5417 5406 5394 5382 5370 5358 5346 5334 5321 5309 5296 5284 5272 5261 5251 5244 5234 5222 5218 5211 5207 5206 5207 5215 5226 5242 5260 5279 5298 5317 5338 5364 5394
5452 5443 5435 5425 5414 5404 5393 5382 5370 5357 5345 5333 5321 5309 5297 5286 5273 5263 5252 5241 5231 5222 5212 5207 5200 5196 5194 5195 5203 5214 5230 5249 5269 5289 5309 5331 5356 5386
5439 5430 5422 5412 5402 5392 5382 5371 5359 5347 5335 5323 5311 5300 5287 5275 5263 5252 5241 5231 5222 5212 5202 5196 5191 5186 5184 5186 5192 5204 5220 5239 5259 5280 5301 5323 5348 5378
5426 5417 5409 5400 5390 5380 5371 5361 5350 5338 5326 5314 5301 5289 5277 5265 5253 5243 5232 5222 5214 5205 5195 5188 5183 5178 5176 5178 5183 5194 5210 5230 5250 5271 5293 5315 5341 5368
5413 5405 5397 5388 5378 5367 5358 5349 5339 5328 5317 5306 5294 5282 5270 5259 5247 5236 5225 5215 5206 5198 5189 5182 5176 5172 5170 5171 5176 5187 5202 5222 5242 5264 5285 5308 5332 5359
5400 5392 5384 5375 5366 5356 5347 5338 5328 5318 5307 5296 5285 5274 5263 5252 5241 5230 5220 5209 5201 5192 5185 5178 5172 5168 5166 5167 5172 5182 5197 5215 5236 5257 5278 5301 5325 5351
5387 5380 5372 5363 5354 5345 5336 5327 5318 5308 5298 5287 5277 5266 5256 5245 5235 5225 5215 5206 5197 5189 5182 5175 5170 5166 5165 5166 5171 5180 5194 5211 5230 5251 5273 5295 5318 5344
5374 5367 5360 5352 5343 5335 5326 5318 5309 5300 5290 5280 5269 5259 5249 5240 5230 5221 5212 5203 5195 5188 5181 5175 5170 5167 5166 5167 5171 5180 5193 5209 5227 5246 5266 5288 5312 5337
5362 5356 5349 5341 5333 5325 5317 5309 5300 5292 5282 5273 5263 5253 5243 5234 5225 5217 5209 5201 5194 5187 5181 5176 5172 5170 5169 5170 5175 5183 5194 5208 5224 5242 5262 5283 5307 5332
5351 5345 5338 5331 5324 5316 5309 5301 5292 5284 5275 5265 5256 5247 5239 5230 5222 5214 5207 5200 5194 5188 5183 5179 5175 5173 5173 5175 5180 5186 5196 5209 5223 5240 5260 5281 5303 5328
5339 5334 5328 5322 5315 5308 5300 5293 5285 5277 5268 5260 5251 5243 5235 5227 5219 5212 5206 5200 5194 5189 5185 5182 5179 5178 5179 5180 5184 5190 5199 5210 5224 5240 5259 5280 5302 5325
5329 5324 5318 5312 5306 5299 5293 5286 5278 5270 5262 5254 5246 5238 5231 5224 5217 5211 5205 5200 5195 5191 5187 5185 5183 5183 5184 5185 5189 5195 5202 5212 5225 5241 5259 5280 5302 5324
5319 5315 5309 5304 5298 5292 5286 5279 5272 5264 5257 5249 5242 5234 5228 5222 5215 5210 5205 5200 5196 5193 5190 5188 5187 5187 5188 5190 5194 5199 5205 5215 5227 5242 5259 5278 5298 5319
5310 5306 5301 5296 5291 5285 5279 5273 5266 5259 5252 5244 5237 5231 5225 5219 5214 5209 5205 5201 5197 5194 5192 5191 5190 5190 5191 5194 5198 5203 5209 5217 5228 5242 5258 5275 5294 5314
5301 5298 5294 5289 5284 5278 5273 5267 5261 5254 5247 5240 5233 5227 5222 5217 5212 5208 5204 5201 5198 5196 5194 5193 5192 5193 5195 5197 5201 5205 5212 5220 5229 5241 5257 5273 5291 5314
5294 5291 5287 5282 5278 5272 5267 5261 5255 5249 5242 5236 5230 5224 5219 5214 5210 5206 5203 5201 5198 5196 5195 5194 5194 5195 5197 5200 5204 5208 5214 5222 5231 5243 5258 5274 5293 5312